Regional Weather Roundup
Issued by NWS State College, PA

Home | Current Version | Previous Version | Text Only | Print | Product List | Glossary On
Versions: 1 2 3 4 5 6 7 8 9 10 11 12 13 14 15 16 17 18 19 20 21 22 23 24 25 26 27 28 29 30 31 32 33 34 35 36 37 38 39 40 41 42 43 44 45 46 47 48 49 50
000
ASUS41 KCTP 260503
RWRCTP

REGIONAL WEATHER ROUNDUP
NATIONAL WEATHER SERVICE STATE COLLEGE PA
100 AM EDT SUN APR 26 2015

Note: "fair" indicates few or no clouds below 12,000 feet with no
significant weather and/or obstructions to visibility.

* = STATION THAT DOES NOT REPORT PRECIPITATION /E.G. RAIN...SNOW...ETC/
    THUNDER OR FOG.

PAZ002>004-007>009-013>016-020>023-029>032-260600-
WESTERN PENNSYLVANIA

CITY           SKY/WX    TMP DP  RH WIND       PRES   REMARKS
ERIE           CLEAR     39  28  64 NE8       29.76S
MEADVILLE      PTCLDY    38  25  59 NE8       29.73R
FRANKLIN*      PTCLDY    37  25  60 N10       29.73S
NEW CASTLE     FAIR      41  29  62 N7        29.73R
BEAVER COUNTY  NOT AVBL
BUTLER*        PTCLDY    43  27  52 NE12      29.71R
PITTSBURGH INT CLOUDY    47  24  40 NE14      29.67R
PITTSBURGH     CLOUDY    45  33  63 S7        29.67R
INDIANA*       CLOUDY    41  25  52 N3        29.72R
LATROBE        CLOUDY    45  36  70 S7        29.70R
WASHINGTON CO* CLOUDY    43  37  81 CALM      29.69F
$$

PAZ004>006-010>012-017>019-024>028-033>037-041-042-045-046-049>053-260600-
CENTRAL PENNSYLVANIA

CITY           SKY/WX    TMP DP  RH WIND       PRES   REMARKS
BRADFORD       CLEAR     34  24  67 E5        29.71F
DUBOIS         MOCLDY    43  24  47 NE10      29.69R
CLEARFIELD     MOCLDY    40  25  55 NE10      29.71R
JOHNSTOWN      CLOUDY    41  26  55 SW5       29.66R
ALTOONA        CLOUDY    41  30  65 W3        29.68R
STATE COLLEGE  MOCLDY    40  26  57 NE7       29.70S
WILLIAMSPORT   PTCLDY    45  24  43 NE6       29.72F
SELINSGROVE    PTCLDY    37  31  78 N7        29.72S
FT INDIANTOWN  PTCLDY    46  24  42 VRB2      29.69F
CAPITAL CITY   MOCLDY    45  30  55 W3        29.71R
HARRISBURG     MOCLDY    44  31  60 NW7       29.70R
YORK           CLOUDY    39  32  76 CALM      29.70S
$$

PAZ038>040-043-044-047-048-054-055-060>062-067>071-260600-
EASTERN PENNSYLVANIA

CITY           SKY/WX    TMP DP  RH WIND       PRES   REMARKS
SCRANTON       PTCLDY    42  25  50 NE3       29.71F
MOUNT POCONO   MOCLDY    39  24  55 N9        29.68F
ALLENTOWN      PTCLDY    44  28  53 CALM      29.70F
QUAKERTOWN*    PTCLDY    46  27  46 N5        29.69F
READING        MOCLDY    43  29  57 CALM      29.69F
LANCASTER      MOCLDY    41  29  62 W8        29.69F
COATESVILLE    CLOUDY    41  36  81 NW5       29.69F
POTTSTOWN      MOCLDY    41  30  65 CALM      29.70F
BLUE BELL      MOCLDY    46  34  61 CALM      29.68F
DOYLESTOWN     MOCLDY    43  26  51 CALM      29.68F
WILLOW GROVE   NOT AVBL
NORTH PHILA    CLOUDY    48  29  47 W5        29.69F
PHILADELPHIA   CLOUDY    48  37  65 W7        29.69F
$$


USA.gov is the U.S. government's official web portal to all federal, state and local government web resources and services.